| time (UTC) | temp F | wind direction | speed knots | gust knots | rain 1hr in | rain 24hr in | rain mn in | humidity % | barometer mb |
| 20260508100207 | 62 | 202 | 2.6 | 9.6 | 0.00 | 0.00 | 0.00 | 51 | 1009.0 |
| 20260508094708 | 62 | 180 | 0.9 | 8.7 | 0.00 | 0.00 | 0.00 | 51 | 1009.0 |
| 20260508093207 | 60 | 338 | 5.2 | 9.6 | 0.00 | 0.00 | 0.00 | 52 | 1009.0 |
| 20260508091707 | 60 | 135 | 3.5 | 9.6 | 0.00 | 0.00 | 0.00 | 53 | 1008.7 |
| 20260508090207 | 60 | 112 | 0.9 | 7.8 | 0.00 | 0.00 | 0.00 | 55 | 1008.7 |
| 20260508084706 | 58 | 158 | 2.6 | 7.8 | 0.00 | 0.00 | 0.00 | 57 | 1008.7 |
| 20260508083208 | 59 | 180 | 2.6 | 7.0 | 0.00 | 0.00 | 0.00 | 54 | 1008.5 |
| 20260508081707 | 58 | 180 | 2.6 | 8.7 | 0.00 | 0.00 | 0.00 | 61 | 1008.5 |
| 20260508080206 | 57 | 225 | 2.6 | 5.2 | 0.00 | 0.00 | 0.00 | 66 | 1008.4 |
| 20260508074707 | 57 | 225 | 1.7 | 7.8 | 0.00 | 0.00 | 0.00 | 69 | 1008.7 |
| 20260508073207 | 54 | 202 | 1.7 | 5.2 | 0.00 | 0.00 | 0.00 | 75 | 1008.4 |
| 20260508071706 | 53 | 180 | 1.7 | 5.2 | 0.00 | 0.00 | 0.00 | 75 | 1008.2 |
| 20260508070206 | 54 | 270 | 2.6 | 5.2 | 0.00 | 0.00 | 0.00 | 72 | 1008.2 |
| 20260508064707 | 52 | 180 | 0.0 | 3.5 | 0.00 | 0.00 | 0.00 | 79 | 1008.0 |
| 20260508063206 | 51 | 158 | 1.7 | 5.2 | 0.00 | 0.00 | 0.00 | 80 | 1008.1 |
| 20260508061706 | 51 | 180 | 1.7 | 5.2 | 0.00 | 0.00 | 0.00 | 77 | 1007.8 |
| 20260508060207 | 51 | 202 | 1.7 | 5.2 | 0.00 | 0.00 | 0.00 | 76 | 1007.4 |
| 20260508054706 | 51 | 225 | 0.9 | 3.5 | 0.00 | 0.00 | 0.00 | 76 | 1007.4 |
| 20260508053207 | 51 | 225 | 0.9 | 5.2 | 0.00 | 0.00 | 0.00 | 76 | 1007.3 |
| 20260508051707 | 51 | 225 | 2.6 | 5.2 | 0.00 | 0.00 | 0.00 | 76 | 1007.2 |
| 20260508050205 | 52 | 202 | 2.6 | 3.5 | 0.00 | 0.00 | 0.00 | 75 | 1006.8 |
| 20260508044705 | 52 | 180 | 1.7 | 5.2 | 0.00 | 0.00 | 0.00 | 78 | 1006.9 |
| 20260508043205 | 52 | 202 | 0.9 | 3.5 | 0.00 | 0.00 | 0.00 | 78 | 1007.1 |
| 20260508041705 | 52 | 180 | 3.5 | 5.2 | 0.00 | 0.00 | 0.00 | 77 | 1007.0 |
| 20260508040206 | 53 | 202 | 2.6 | 5.2 | 0.00 | 0.00 | 0.00 | 76 | 1007.2 |
| 20260508034706 | 53 | 180 | 0.9 | 2.6 | 0.00 | 0.00 | 0.00 | 72 | 1007.3 |
| 20260508033205 | 54 | 202 | 0.9 | 2.6 | 0.00 | 0.00 | 0.00 | 69 | 1007.2 |
| 20260508031705 | 54 | 202 | 0.0 | 1.7 | 0.00 | 0.00 | 0.00 | 69 | 1007.0 |
| 20260508030204 | 54 | 202 | 0.0 | 2.6 | 0.00 | 0.00 | 0.00 | 68 | 1006.9 |
| 20260508024705 | 54 | 292 | 0.9 | 3.5 | 0.00 | 0.00 | 0.00 | 67 | 1007.2 |
| 20260508023204 | 54 | 270 | 2.6 | 5.2 | 0.00 | 0.00 | 0.00 | 68 | 1007.1 |
| 20260508021706 | 54 | 292 | 2.6 | 5.2 | 0.00 | 0.00 | 0.00 | 67 | 1007.2 |
| 20260508020206 | 54 | 292 | 3.5 | 7.0 | 0.00 | 0.00 | 0.00 | 67 | 1007.4 |
| 20260508014705 | 53 | 315 | 2.6 | 5.2 | 0.00 | 0.00 | 0.00 | 71 | 1007.4 |
| 20260508013204 | 53 | 315 | 1.7 | 3.5 | 0.00 | 0.00 | 0.00 | 72 | 1007.3 |
| 20260508011704 | 54 | 292 | 0.0 | 2.6 | 0.00 | 0.00 | 0.00 | 74 | 1007.7 |
| 20260508010205 | 53 | 315 | 0.0 | 2.6 | 0.00 | 0.00 | 0.00 | 76 | 1007.6 |
| 20260508004705 | 54 | 292 | 0.0 | 5.2 | 0.00 | 0.00 | 0.00 | 75 | 1007.5 |
| 20260508003204 | 54 | 315 | 2.6 | 5.2 | 0.00 | 0.00 | 0.00 | 74 | 1007.9 |
| 20260508001704 | 54 | 292 | 0.9 | 2.6 | 0.00 | 0.00 | 0.00 | 74 | 1008.1 |
| 20260508000205 | 54 | 292 | 1.7 | 3.5 | 0.00 | 0.00 | 0.00 | 74 | 1007.6 |
| 20260507234705 | 54 | 292 | 2.6 | 5.2 | 0.00 | 0.00 | 0.00 | 74 | 1007.9 |
| 20260507233204 | 55 | 315 | 3.5 | 8.7 | 0.00 | 0.00 | 0.00 | 73 | 1007.7 |
| 20260507231705 | 54 | 292 | 2.6 | 5.2 | 0.00 | 0.00 | 0.00 | 76 | 1007.9 |
| 20260507230204 | 54 | 315 | 2.6 | 5.2 | 0.00 | 0.00 | 0.00 | 75 | 1008.0 |
| 20260507224703 | 55 | 315 | 2.6 | 7.0 | 0.00 | 0.00 | 0.00 | 74 | 1007.9 |
| 20260507223204 | 55 | 292 | 4.3 | 11.3 | 0.00 | 0.00 | 0.00 | 73 | 1008.0 |
| 20260507221704 | 55 | 315 | 5.2 | 11.3 | 0.00 | 0.00 | 0.00 | 73 | 1008.2 |
| 20260507220204 | 56 | 315 | 5.2 | 10.4 | 0.00 | 0.00 | 0.00 | 73 | 1008.1 |
| 20260507214704 | 56 | 270 | 6.1 | 9.6 | 0.00 | 0.00 | 0.00 | 73 | 1008.3 |
| 20260507213204 | 56 | 315 | 6.1 | 10.4 | 0.00 | 0.00 | 0.00 | 73 | 1008.1 |
| 20260507211704 | 56 | 338 | 7.8 | 13.0 | 0.00 | 0.00 | 0.00 | 72 | 1008.3 |
| 20260507210204 | 57 | 315 | 7.8 | 13.0 | 0.00 | 0.00 | 0.00 | 71 | 1008.1 |
| 20260507204704 | 58 | 292 | 6.1 | 19.1 | 0.00 | 0.00 | 0.00 | 69 | 1008.0 |
| 20260507203204 | 59 | 292 | 7.0 | 13.0 | 0.00 | 0.00 | 0.00 | 66 | 1007.9 |
| 20260507201703 | 60 | 292 | 10.4 | 13.0 | 0.00 | 0.00 | 0.00 | 58 | 1007.5 |
| 20260507200204 | 61 | 270 | 2.6 | 8.7 | 0.00 | 0.00 | 0.00 | 54 | 1007.6 |
| 20260507194704 | 62 | 292 | 4.3 | 8.7 | 0.00 | 0.00 | 0.00 | 53 | 1007.3 |
| 20260507193203 | 62 | 270 | 2.6 | 5.2 | 0.00 | 0.00 | 0.00 | 53 | 1007.2 |
| 20260507191703 | 63 | 292 | 2.6 | 5.2 | 0.00 | 0.00 | 0.00 | 52 | 1006.9 |
| 20260507190202 | 63 | 270 | 3.5 | 9.6 | 0.00 | 0.00 | 0.00 | 51 | 1006.7 |
| 20260507184703 | 64 | 270 | 2.6 | 8.7 | 0.00 | 0.00 | 0.00 | 50 | 1006.9 |
| 20260507183203 | 65 | 292 | 2.6 | 8.7 | 0.00 | 0.00 | 0.00 | 48 | 1006.5 |
| 20260507181703 | 66 | 292 | 3.5 | 9.6 | 0.00 | 0.00 | 0.00 | 47 | 1006.2 |
| 20260507180203 | 67 | 315 | 3.5 | 9.6 | 0.00 | 0.00 | 0.00 | 47 | 1006.4 |
| 20260507174702 | 67 | 292 | 6.1 | 9.6 | 0.00 | 0.00 | 0.00 | 46 | 1006.4 |
| 20260507173203 | 68 | 248 | 5.2 | 9.6 | 0.00 | 0.00 | 0.00 | 44 | 1006.3 |
| 20260507171704 | 70 | 248 | 0.9 | 8.7 | 0.00 | 0.00 | 0.00 | 42 | 1006.3 |
| 20260507170203 | 69 | 180 | 1.7 | 7.0 | 0.00 | 0.00 | 0.00 | 42 | 1006.2 |
| 20260507164703 | 70 | 315 | 3.5 | 11.3 | 0.00 | 0.00 | 0.00 | 44 | 1006.2 |
| 20260507163202 | 70 | 180 | 4.3 | 10.4 | 0.00 | 0.00 | 0.00 | 42 | 1006.4 |
| 20260507161702 | 71 | 202 | 0.9 | 7.0 | 0.00 | 0.00 | 0.00 | 41 | 1006.3 |
| 20260507160202 | 71 | 202 | 4.3 | 10.4 | 0.00 | 0.00 | 0.00 | 42 | 1006.3 |
| 20260507154703 | 68 | 225 | 3.5 | 9.6 | 0.00 | 0.00 | 0.00 | 43 | 1006.4 |
| 20260507153202 | 71 | 112 | 2.6 | 11.3 | 0.00 | 0.00 | 0.00 | 41 | 1006.5 |
| 20260507151703 | 69 | 270 | 0.9 | 8.7 | 0.00 | 0.00 | 0.00 | 42 | 1006.5 |
| 20260507150201 | 71 | 158 | 2.6 | 9.6 | 0.00 | 0.00 | 0.00 | 39 | 1006.7 |
| 20260507144702 | 70 | 180 | 2.6 | 7.0 | 0.00 | 0.00 | 0.00 | 39 | 1007.0 |
| 20260507143201 | 69 | 158 | 4.3 | 8.7 | 0.00 | 0.00 | 0.00 | 41 | 1006.9 |
| 20260507141702 | 70 | 202 | 3.5 | 10.4 | 0.00 | 0.00 | 0.00 | 40 | 1007.1 |
| 20260507140203 | 71 | 180 | 3.5 | 9.6 | 0.00 | 0.00 | 0.00 | 39 | 1007.1 |
| 20260507134701 | 68 | 202 | 3.5 | 9.6 | 0.00 | 0.00 | 0.00 | 44 | 1007.3 |
| 20260507133201 | 69 | 292 | 1.7 | 11.3 | 0.00 | 0.00 | 0.00 | 43 | 1007.3 |
| 20260507131702 | 70 | 292 | 2.6 | 7.0 | 0.00 | 0.00 | 0.00 | 42 | 1007.4 |
| 20260507130201 | 70 | 292 | 2.6 | 9.6 | 0.00 | 0.00 | 0.00 | 43 | 1007.5 |
| 20260507124701 | 70 | 158 | 2.6 | 8.7 | 0.00 | 0.00 | 0.00 | 41 | 1007.5 |
| 20260507123202 | 68 | 202 | 5.2 | 11.3 | 0.00 | 0.00 | 0.00 | 44 | 1007.8 |
| 20260507121702 | 69 | 180 | 3.5 | 5.2 | 0.00 | 0.00 | 0.00 | 42 | 1008.1 |
| 20260507120202 | 66 | 180 | 3.5 | 5.2 | 0.00 | 0.00 | 0.00 | 48 | 1008.3 |
| 20260507114701 | 67 | 292 | 2.6 | 11.3 | 0.00 | 0.00 | 0.00 | 49 | 1008.1 |
| 20260507113200 | 68 | 225 | 5.2 | 10.4 | 0.00 | 0.00 | 0.00 | 48 | 1008.4 |
| 20260507111701 | 68 | 180 | 0.9 | 7.8 | 0.00 | 0.00 | 0.00 | 50 | 1008.4 |
| 20260507110201 | 65 | 225 | 2.6 | 9.6 | 0.00 | 0.00 | 0.00 | 55 | 1008.5 |
| 20260507104701 | 65 | 135 | 5.2 | 9.6 | 0.00 | 0.00 | 0.00 | 55 | 1008.6 |
| 20260507103200 | 67 | 180 | 2.6 | 9.6 | 0.00 | 0.00 | 0.00 | 51 | 1008.4 |
| 20260507101701 | 66 | 158 | 2.6 | 7.8 | 0.00 | 0.00 | 0.00 | 52 | 1008.3 |